Fort Worth NAS, TX

5:16 AM CDT on July 27, 2017 (GMT -0500)
Fort Worth Naval Air Station Jrb

Weather History for KNFW - May, 2013

Change the Weather History Date:

Saturday, May 25, 2013

  Actual Average Record
Temperature  
Mean Temperature 76 °F -  
Max Temperature 82 °F 84 °F 95 °F (2008)
Min Temperature 69 °F 66 °F 32 °F (2015)
Cooling Degree Days 10    
Growing Degree Days 26 (Base 50)    
Moisture  
Dew Point 64 °F    
Average Humidity 69    
Maximum Humidity 81    
Minimum Humidity 49    
Precipitation  
Precipitation 0.01 in - - ()
Sea Level Pressure  
Sea Level Pressure 30.11 in    
Wind  
Wind Speed 7 mph (SE)    
Max Wind Speed 21 mph    
Max Gust Speed 30 mph    
Visibility 10 miles    
Events Rain    
Averages and records for this station are not official NWS values.
T = Trace of Precipitation, MM = Missing Value Source: NWS Daily Summary

Daily Weather History Graph

Daily Weather History Graph

Search for Another Location

Airport or City:

Trip Planner

Search our weather history database for the weather conditions in past years. The results will help you decide how hot, cold, wet, or windy it might be!

Date:

Astronomy

May. 25, 2013 Rise Set
Actual Time 6:25 AM CDT 8:28 PM CDT
Civil Twilight 5:57 AM CDT 8:56 PM CDT
Nautical Twilight 5:23 AM CDT 9:30 PM CDT
Astronomical Twilight 4:47 AM CDT 10:06 PM CDT
Moon 9:18 PM CDT (5/25) 6:52 AM CDT (5/25)
Length of Visible Light 14h 59m
Length of Day
14h 03m
Full, 100% of the Moon is Illuminated
May 25
Full
May 31
Last Quarter
Jun 8
New
Jun 16
First Quarter
Jun 23
Full

Hourly Weather History & Observations

Time (CDT) Temp. Heat Index Dew Point Humidity Pressure Visibility Wind Dir Wind Speed Gust Speed Precip Events Conditions
12:52 AM 71.1 °F - 61.0 °F 70% 30.14 in 10.0 mi East 5.8 mph - 0.00 in Rain Light Rain
1:52 AM 70.0 °F - 62.1 °F 76% 30.12 in 9.0 mi NE 3.5 mph - 0.00 in Rain Light Rain
2:52 AM 71.1 °F - 62.1 °F 73% 30.09 in 10.0 mi SW 5.8 mph - 0.00 in   Unknown
3:52 AM 71.1 °F - 61.0 °F 70% 30.10 in 10.0 mi SE 4.6 mph - 0.00 in   Mostly Cloudy
4:52 AM 70.0 °F - 62.1 °F 76% 30.12 in 10.0 mi East 8.1 mph - N/A   Partly Cloudy
5:25 AM 69.8 °F - 62.6 °F 78% 30.17 in 10.0 mi SE 4.6 mph - N/A   Mostly Cloudy
5:35 AM 69.8 °F - 62.6 °F 78% 30.16 in 10.0 mi ESE 4.6 mph - N/A   Mostly Cloudy
5:52 AM 70.0 °F - 62.1 °F 76% 30.11 in 10.0 mi Calm Calm - N/A   Scattered Clouds
6:52 AM 69.1 °F - 63.0 °F 81% 30.12 in 10.0 mi ESE 3.5 mph - N/A   Partly Cloudy
7:03 AM 69.8 °F - 62.6 °F 78% 30.16 in 10.0 mi SE 4.6 mph - N/A   Mostly Cloudy
7:34 AM 69.8 °F - 62.6 °F 78% 30.16 in 10.0 mi SE 5.8 mph - N/A   Scattered Clouds
7:52 AM 71.1 °F - 64.0 °F 78% 30.11 in 10.0 mi SE 4.6 mph - N/A   Clear
8:13 AM 71.6 °F - 62.6 °F 73% 30.16 in 10.0 mi SE 4.6 mph - N/A   Mostly Cloudy
8:52 AM 73.0 °F - 63.0 °F 71% 30.13 in 10.0 mi SSE 8.1 mph - N/A   Mostly Cloudy
8:59 AM 73.4 °F - 64.4 °F 73% 30.18 in 10.0 mi SE 9.2 mph - N/A   Overcast
9:52 AM 75.0 °F - 64.0 °F 69% 30.14 in 10.0 mi SE 10.4 mph - N/A   Mostly Cloudy
10:52 AM 75.9 °F - 66.0 °F 71% 30.14 in 10.0 mi ESE 9.2 mph - N/A   Mostly Cloudy
11:38 AM 78.8 °F - 66.2 °F 65% 30.19 in 10.0 mi SSE 12.7 mph 17.3 mph N/A   Mostly Cloudy
11:52 AM 79.0 °F - 66.9 °F 66% 30.14 in 10.0 mi SSE 11.5 mph - N/A   Overcast
12:52 PM 81.0 °F 83.3 °F 66.9 °F 62% 30.12 in 10.0 mi SSE 9.2 mph - N/A   Overcast
1:52 PM 82.0 °F 84.5 °F 66.9 °F 60% 30.10 in 10.0 mi SSE 16.1 mph - 0.00 in   Mostly Cloudy
2:38 PM 78.8 °F - 68.0 °F 69% 30.14 in 10.0 mi SSE 11.5 mph - 0.01 in   Overcast
2:52 PM 78.1 °F - 66.0 °F 66% 30.09 in 10.0 mi SSE 12.7 mph - 0.01 in   Overcast
3:52 PM 78.1 °F - 64.0 °F 62% 30.08 in 10.0 mi SSW 20.7 mph 29.9 mph N/A   Mostly Cloudy
4:01 PM 77.0 °F - 66.2 °F 69% 30.12 in 9.0 mi South 16.1 mph - 0.00 in Rain Light Rain
4:52 PM 81.0 °F 83.8 °F 68.0 °F 65% 30.05 in 10.0 mi SSW 12.7 mph - 0.00 in   Mostly Cloudy
5:52 PM 82.0 °F 82.7 °F 61.0 °F 49% 30.05 in 10.0 mi South 18.4 mph 29.9 mph N/A   Overcast
6:52 PM 79.0 °F - 60.1 °F 52% 30.04 in 10.0 mi ESE 12.7 mph 20.7 mph 0.00 in   Partly Cloudy
7:52 PM 78.1 °F - 63.0 °F 60% 30.04 in 10.0 mi SE 10.4 mph - N/A   Clear
8:52 PM 75.9 °F - 64.0 °F 67% 30.02 in 10.0 mi ESE 9.2 mph - N/A   Clear
9:52 PM 75.9 °F - 64.9 °F 69% 30.04 in 10.0 mi SE 9.2 mph - N/A   Clear
10:52 PM 75.9 °F - 66.0 °F 71% 30.06 in 10.0 mi SSE 9.2 mph - N/A   Mostly Cloudy
11:52 PM 77.0 °F - 66.0 °F 69% 30.07 in 10.0 mi SSE 9.2 mph - N/A   Overcast